[[{"header":{"parameterUnit":"m.s-1","parameterCategory":1,"la1":30.2991,"la2":30.254,"lo1":-89.0895,"lo2":-89.0444,"dy":0.0017,"dx":0.0017,"nx":28,"ny":28,"refTime":"2025-06-22T21:00:00:Z","depth":0,"parameterNumber":2,"parameterNumberName":"U-component_of_WINDS"},"data":[0,0,0,0,0,0,0,0,0,0,0,0,0,0,0,0,0,0,0,0,0,0,0,0,0,0,0,0,0,0,0,0,0,0,0,0,0,0,0,0,0,0,0,0,0,0,0,0,0,0,0,0,0,0,0,0,0,0,-3.5045,-3.5044,0,-3.4959,-3.4958,-3.4957,-3.4833,-3.4831,-3.4829,-3.4827,-3.4739,-3.4739,-3.4739,0,0,0,0,0,0,0,0,0,0,0,0,0,-3.5106,-3.5106,-3.5045,-3.5044,-3.5043,-3.4959,-3.4958,-3.4956,-3.4833,-3.4831,-3.4828,-3.4826,-3.4739,-3.4739,-3.4739,0,0,0,0,0,0,0,0,0,0,0,0,0,-3.5056,-3.5106,-3.5046,-3.4972,-3.4964,-3.4959,-3.4958,-3.4956,-3.4834,-3.4831,-3.4827,-3.4824,-3.474,-3.4739,-3.4739,-3.48,0,0,-3.4737,-3.4737,0,0,0,0,0,0,0,0,-3.5059,-3.5054,-3.4984,-3.4977,-3.4968,-3.4903,-3.4947,-3.4904,-3.4835,-3.4883,-3.4827,-3.4823,-3.4797,-3.4791,-3.4782,-3.4795,-3.4792,-3.4737,-3.4737,-3.4737,-3.4736,0,0,0,0,0,0,0,-3.5063,-3.5057,-3.5011,-3.4983,-3.4973,-3.4943,-3.4933,-3.4938,-3.4859,-3.4879,-3.487,-3.4861,-3.4792,-3.4783,-3.4779,-3.479,-3.4737,-3.4737,-3.4736,-3.4736,-3.485,-3.4854,0,0,0,0,0,0,-3.5077,-3.5061,-3.5014,-3.5008,-3.5007,-3.4945,-3.4933,-3.4927,-3.4859,-3.4845,-3.4864,-3.4856,-3.4785,-3.478,-3.4776,-3.4843,-3.4737,-3.4736,-3.4736,-3.4847,-3.4851,-3.4855,0,0,0,0,0,0,-3.5079,-3.5074,-3.5017,-3.5032,-3.5022,-3.4947,-3.4942,-3.4927,-3.4918,-3.4847,-3.4833,-3.4869,-3.4782,-3.4776,-3.4795,-3.4838,-3.4736,-3.4735,-3.4843,-3.4848,-3.4853,-3.4978,0,0,0,0,0,0,-3.5081,-3.5075,-3.5097,-3.5033,-3.5022,-3.5038,-3.4945,-3.4928,-3.4917,-3.4906,-3.4848,-3.4836,-3.4779,-3.4796,-3.4794,-3.4836,-3.4735,-3.4839,-3.4846,-3.4851,-3.497,-3.4987,-3.5001,0,0,0,0,0,-3.5083,-3.5136,-3.5099,-3.5094,-3.5048,-3.504,-3.5034,-3.4968,-3.4921,-3.4943,-3.4898,-3.4837,-3.4834,-3.4799,-3.4796,-3.4838,-3.4836,-3.4844,-3.4851,-3.4963,-3.4983,-3.5001,0,0,0,0,0,0,-3.5207,-3.5126,-3.5084,-3.5117,-3.5087,-3.5019,-3.5045,-3.4992,-3.4974,-3.4964,-3.4883,-3.4871,-3.49,-3.487,-3.4833,-3.4894,-3.4826,-3.4833,-3.4912,-3.4931,-3.4946,-3.4953,-3.4735,0,0,0,0,0,-3.5238,-3.5238,-3.5168,-3.5204,-3.5191,-3.5121,-3.5115,-3.5067,-3.5032,-3.5018,-3.4974,-3.4943,-3.4935,-3.4931,-3.4919,-3.4965,-3.4951,-3.4992,-3.5008,-3.5021,-3.5029,-3.5052,-3.5069,-3.488,-3.4879,-3.4879,0,0,-3.5302,-3.5258,-3.5263,-3.5228,-3.5198,-3.5201,-3.5111,-3.5117,-3.5118,-3.5019,-3.5034,-3.5001,-3.4961,-3.4994,-3.5006,-3.497,-3.5078,-3.5031,-3.5042,-3.5042,-3.5061,-3.5079,-3.5095,-3.4885,-3.4884,-3.4883,0,0,-3.5421,-3.5387,-3.5414,-3.5386,-3.5343,-3.5296,-3.5303,-3.5244,-3.5218,-3.5231,-3.5157,-3.5158,-3.5145,-3.512,-3.5106,-3.5216,-3.516,-3.5215,-3.5297,-3.5321,-3.5336,-3.5348,-3.5389,-3.5404,-3.5222,-3.5223,-3.5223,0,-3.5506,-3.5507,-3.5434,-3.5446,-3.5433,-3.5343,-3.537,-3.5347,-3.5302,-3.5296,-3.5256,-3.5239,-3.5206,-3.5232,-3.5259,-3.525,-3.5256,-3.5221,-3.5339,-3.5351,-3.5362,-3.54,-3.5415,-3.5229,-3.5229,-3.5228,-3.5227,0,-3.5614,-3.5616,-3.5643,-3.5602,-3.5592,-3.5611,-3.5543,-3.5541,-3.5494,-3.5452,-3.5468,-3.5425,-3.5404,-3.5406,-3.536,-3.5426,-3.5405,-3.5354,-3.5284,-3.5389,-3.5422,-3.5436,-3.5239,-3.5237,-3.5235,-3.5233,0,0,-3.5808,-3.5727,-3.5738,-3.5719,-3.5665,-3.5665,-3.5681,-3.5659,-3.566,-3.5633,-3.5645,-3.5636,-3.5589,-3.5573,-3.5523,-3.5544,-3.5635,-3.5489,-3.5487,-3.5519,-3.5706,-3.5746,-3.5763,-3.5598,-3.56,-3.5602,-3.571,0,-3.5916,-3.5938,-3.5874,-3.5912,-3.5913,-3.5828,-3.5842,-3.5811,-3.5773,-3.5768,-3.5726,-3.5722,-3.5658,-3.5648,-3.5665,-3.5621,-3.5672,-3.5612,-3.5609,-3.5609,-3.5622,-3.5781,-3.5822,-3.5926,-3.5722,-3.5724,-3.5726,0,-3.6045,-3.6025,-3.6063,-3.6007,-3.6006,-3.6019,-3.5995,-3.5992,-3.5955,-3.5926,-3.5909,-3.5851,-3.5864,-3.5797,-3.5813,-3.5774,-3.5769,-3.5748,-3.575,-3.5748,-3.5675,-3.5783,-3.5957,-3.5973,-3.5746,-3.5744,-3.5743,0,-3.6184,-3.6165,-3.6186,-3.6172,-3.6108,-3.6119,-3.6093,-3.6053,-3.6045,-3.6024,-3.6018,-3.5999,-3.599,-3.5977,-3.5916,-3.5873,-3.5941,-3.5868,-3.5917,-3.5919,-3.5936,-3.5936,-3.6112,-3.5932,-3.5932,-3.5931,-3.5931,0,-3.6312,-3.6339,-3.6247,-3.626,-3.6289,-3.6215,-3.6245,-3.6211,-3.6176,-3.6182,-3.6107,-3.6114,-3.6033,-3.6032,-3.5985,-3.6006,-3.6002,-3.5979,-3.5967,-3.5986,-3.5989,-3.5982,-3.5974,-3.5935,-3.5935,-3.5934,-3.5933,0,-3.6471,-3.6411,-3.6428,-3.6366,-3.6351,-3.6375,-3.6321,-3.6331,-3.6288,-3.6296,-3.6294,-3.6227,-3.6221,-3.6159,-3.614,-3.6108,-3.6148,-3.6121,-3.6161,-3.6152,-3.6205,-3.6202,-3.6384,-3.6404,-3.6211,-3.6213,-3.6215,0,-3.6557,-3.6576,-3.6516,-3.6514,-3.6491,-3.6489,-3.648,-3.6409,-3.6403,-3.6363,-3.6379,-3.6366,-3.6353,-3.6348,-3.6298,-3.6283,-3.6256,-3.6321,-3.6253,-3.6273,-3.6258,-3.6258,-3.626,-3.6336,-3.6338,-3.634,-3.6342,0,-3.6716,-3.6686,-3.6675,-3.6656,-3.6647,-3.6628,-3.6604,-3.6607,-3.6529,-3.6526,-3.6519,-3.6509,-3.6489,-3.6479,-3.6456,-3.6429,-3.6373,-3.6363,-3.6374,-3.6395,-3.6417,-3.6406,-3.6201,-3.6359,-3.6358,-3.6356,-3.6355,-3.6355,-3.6841,-3.6855,-3.6815,-3.6806,-3.6781,-3.6761,-3.6767,-3.6725,-3.6718,-3.6696,-3.6655,-3.6655,-3.6618,-3.6581,-3.656,-3.6559,-3.6525,-3.6541,-3.6545,-3.655,-3.6561,-3.6417,-3.6554,-3.6554,-3.6553,-3.6553,-3.6552,0,-3.6997,-3.6968,-3.6961,-3.693,-3.6924,-3.6871,-3.6842,-3.6841,-3.6841,-3.6812,-3.6801,-3.6793,-3.6783,-3.6733,-3.6717,-3.6726,-3.6701,-3.6725,-3.6724,-3.6719,-3.6591,-3.6584,-3.6746,-3.6746,-3.6746,-3.6746,-3.6746,-3.6746,-3.7078,-3.7098,-3.7063,-3.707,-3.704,-3.7039,-3.7027,-3.7008,-3.6985,-3.698,-3.6971,-3.6938,-3.69,-3.6882,-3.687,-3.6856,-3.6854,-3.6887,-3.6865,-3.6746,-3.6728,-3.671,-3.6703,-3.6887,-3.6888,-3.6992,-3.6993,-3.6994]},{"header":{"parameterUnit":"m.s-1","parameterCategory":1,"la1":30.2991,"la2":30.254,"lo1":-89.0895,"lo2":-89.0444,"dy":0.0017,"dx":0.0017,"nx":28,"ny":28,"refTime":"2025-06-22T21:00:00:Z","depth":0,"parameterNumber":3,"parameterNumberName":"V-component_of_WINDS"},"data":[0,0,0,0,0,0,0,0,0,0,0,0,0,0,0,0,0,0,0,0,0,0,0,0,0,0,0,0,0,0,0,0,0,0,0,0,0,0,0,0,0,0,0,0,0,0,0,0,0,0,0,0,0,0,0,0,0,0,-1.1536,-1.1536,0,-1.1524,-1.1524,-1.1524,-1.1505,-1.1505,-1.1505,-1.1504,-1.1492,-1.1492,-1.1492,0,0,0,0,0,0,0,0,0,0,0,0,0,-1.1542,-1.1542,-1.1536,-1.1536,-1.1536,-1.1525,-1.1524,-1.1524,-1.1506,-1.1505,-1.1505,-1.1504,-1.1492,-1.1492,-1.1492,0,0,0,0,0,0,0,0,0,0,0,0,0,-1.1536,-1.1542,-1.1537,-1.1525,-1.1524,-1.1525,-1.1524,-1.1524,-1.1506,-1.1505,-1.1505,-1.1504,-1.1492,-1.1492,-1.1492,-1.1502,0,0,-1.1492,-1.1492,0,0,0,0,0,0,0,0,-1.1536,-1.1535,-1.1527,-1.1526,-1.1525,-1.1516,-1.1522,-1.1517,-1.1506,-1.1513,-1.1504,-1.1504,-1.15,-1.15,-1.1498,-1.1501,-1.1501,-1.1492,-1.1492,-1.1492,-1.1492,0,0,0,0,0,0,0,-1.1536,-1.1536,-1.1532,-1.1527,-1.1526,-1.1521,-1.1519,-1.1521,-1.1509,-1.1512,-1.1511,-1.151,-1.15,-1.1498,-1.1498,-1.1501,-1.1492,-1.1492,-1.1492,-1.1492,-1.1509,-1.151,0,0,0,0,0,0,-1.1539,-1.1536,-1.1532,-1.1531,-1.1529,-1.1521,-1.1519,-1.1519,-1.1509,-1.1507,-1.151,-1.1509,-1.1499,-1.1498,-1.1497,-1.1508,-1.1492,-1.1492,-1.1492,-1.1509,-1.151,-1.151,0,0,0,0,0,0,-1.1539,-1.1538,-1.1533,-1.1533,-1.1532,-1.1521,-1.1522,-1.1519,-1.1518,-1.1508,-1.1506,-1.1511,-1.1498,-1.1498,-1.1501,-1.1507,-1.1492,-1.1492,-1.1508,-1.1509,-1.151,-1.1529,0,0,0,0,0,0,-1.1539,-1.1539,-1.1543,-1.1534,-1.1532,-1.1537,-1.1522,-1.152,-1.1518,-1.1517,-1.1508,-1.1506,-1.1498,-1.1501,-1.1501,-1.1507,-1.1492,-1.1508,-1.1509,-1.151,-1.1528,-1.153,-1.1533,0,0,0,0,0,-1.1539,-1.1549,-1.1543,-1.1543,-1.1537,-1.1537,-1.1536,-1.1526,-1.1519,-1.1523,-1.1516,-1.1507,-1.1506,-1.1501,-1.1501,-1.1507,-1.1507,-1.1508,-1.151,-1.1527,-1.153,-1.1533,0,0,0,0,0,0,-1.1559,-1.1548,-1.1541,-1.1548,-1.1544,-1.1534,-1.1538,-1.153,-1.1528,-1.1526,-1.1514,-1.1512,-1.1516,-1.1512,-1.1507,-1.1516,-1.1505,-1.1506,-1.1519,-1.1521,-1.1524,-1.1525,-1.1492,0,0,0,0,0,-1.1565,-1.1566,-1.1555,-1.1562,-1.156,-1.155,-1.1549,-1.1542,-1.1537,-1.1535,-1.1528,-1.1523,-1.1522,-1.1521,-1.152,-1.1527,-1.1524,-1.1531,-1.1533,-1.1535,-1.1536,-1.1539,-1.1542,-1.1514,-1.1514,-1.1514,0,0,-1.1576,-1.1569,-1.1571,-1.1566,-1.1562,-1.1562,-1.1548,-1.155,-1.155,-1.1535,-1.1537,-1.1532,-1.1526,-1.1531,-1.1533,-1.1527,-1.1543,-1.1537,-1.1538,-1.1538,-1.154,-1.1543,-1.1545,-1.1514,-1.1514,-1.1514,0,0,-1.1596,-1.1591,-1.1596,-1.1592,-1.1585,-1.1578,-1.1579,-1.157,-1.1566,-1.1568,-1.1556,-1.1556,-1.1554,-1.155,-1.1548,-1.1564,-1.1556,-1.1564,-1.1577,-1.1579,-1.1582,-1.1584,-1.1589,-1.1591,-1.1565,-1.1565,-1.1565,0,-1.161,-1.1611,-1.16,-1.1602,-1.16,-1.1585,-1.159,-1.1586,-1.158,-1.1578,-1.1572,-1.1569,-1.1564,-1.1567,-1.1571,-1.157,-1.157,-1.1565,-1.1582,-1.1584,-1.1586,-1.1591,-1.1593,-1.1566,-1.1566,-1.1566,-1.1566,0,-1.1629,-1.163,-1.1634,-1.1628,-1.1626,-1.163,-1.1618,-1.1618,-1.161,-1.1603,-1.1605,-1.1598,-1.1594,-1.1594,-1.1587,-1.1596,-1.1593,-1.1585,-1.1574,-1.159,-1.1594,-1.1596,-1.1568,-1.1568,-1.1567,-1.1567,0,0,-1.1663,-1.1649,-1.1651,-1.1647,-1.1638,-1.1638,-1.164,-1.1636,-1.1636,-1.1631,-1.1632,-1.163,-1.1622,-1.162,-1.1612,-1.1614,-1.1627,-1.1605,-1.1605,-1.1609,-1.1636,-1.1642,-1.1644,-1.162,-1.1621,-1.1621,-1.1636,0,-1.1681,-1.1685,-1.1674,-1.168,-1.168,-1.1665,-1.1667,-1.1661,-1.1654,-1.1653,-1.1645,-1.1644,-1.1633,-1.1631,-1.1633,-1.1625,-1.1632,-1.1624,-1.1621,-1.1621,-1.1624,-1.1647,-1.1654,-1.1668,-1.1638,-1.1638,-1.1638,0,-1.1704,-1.17,-1.1706,-1.1695,-1.1695,-1.1697,-1.1691,-1.169,-1.1683,-1.1678,-1.1674,-1.1664,-1.1664,-1.1654,-1.1654,-1.1649,-1.1647,-1.1642,-1.1643,-1.1642,-1.1631,-1.1647,-1.1673,-1.1675,-1.1641,-1.1641,-1.1641,0,-1.1728,-1.1724,-1.1727,-1.1724,-1.1712,-1.1713,-1.1708,-1.17,-1.1698,-1.1693,-1.1691,-1.1687,-1.1684,-1.1681,-1.1669,-1.1663,-1.1671,-1.1659,-1.1666,-1.1666,-1.1669,-1.1669,-1.1695,-1.1667,-1.1667,-1.1667,-1.1667,0,-1.175,-1.1754,-1.1737,-1.1739,-1.1742,-1.1729,-1.1733,-1.1727,-1.1719,-1.1719,-1.1706,-1.1706,-1.1691,-1.1689,-1.168,-1.1681,-1.168,-1.1675,-1.1673,-1.1677,-1.1677,-1.1676,-1.1674,-1.1668,-1.1668,-1.1668,-1.1667,0,-1.1778,-1.1767,-1.1769,-1.1756,-1.1753,-1.1757,-1.1746,-1.1746,-1.1738,-1.1738,-1.1737,-1.1724,-1.172,-1.1709,-1.1703,-1.1696,-1.17,-1.1696,-1.1703,-1.1701,-1.1709,-1.1708,-1.1734,-1.1737,-1.1708,-1.1708,-1.1709,0,-1.1793,-1.1796,-1.1783,-1.1782,-1.1777,-1.1776,-1.1773,-1.176,-1.1757,-1.1748,-1.175,-1.1746,-1.1741,-1.1737,-1.1726,-1.1721,-1.1716,-1.1726,-1.1716,-1.1719,-1.1716,-1.1716,-1.1716,-1.1728,-1.1729,-1.1729,-1.1729,0,-1.1821,-1.1815,-1.1812,-1.1806,-1.1803,-1.1799,-1.1793,-1.1793,-1.1777,-1.1775,-1.1772,-1.1768,-1.1762,-1.1757,-1.175,-1.1744,-1.1734,-1.1732,-1.1734,-1.1738,-1.1742,-1.1739,-1.1709,-1.1732,-1.1732,-1.1732,-1.1731,-1.1731,-1.1842,-1.1844,-1.1835,-1.1832,-1.1826,-1.182,-1.182,-1.1811,-1.1808,-1.1802,-1.1793,-1.1791,-1.1782,-1.1771,-1.1766,-1.1763,-1.1757,-1.1759,-1.176,-1.176,-1.1762,-1.1742,-1.1761,-1.1761,-1.1761,-1.1761,-1.1761,0,-1.1869,-1.1863,-1.186,-1.1852,-1.1849,-1.1839,-1.1832,-1.183,-1.1827,-1.182,-1.1816,-1.1811,-1.1806,-1.1795,-1.1789,-1.1788,-1.1784,-1.1787,-1.1787,-1.1786,-1.1767,-1.1767,-1.1791,-1.1791,-1.1791,-1.1791,-1.1791,-1.1791,-1.1883,-1.1884,-1.1877,-1.1875,-1.1868,-1.1865,-1.1862,-1.1856,-1.185,-1.1845,-1.1841,-1.1833,-1.1824,-1.1817,-1.1812,-1.1808,-1.1807,-1.1812,-1.1807,-1.179,-1.1787,-1.1785,-1.1784,-1.1812,-1.1812,-1.1826,-1.1826,-1.1826]}]]